Weather History for Billings, MT

Change the Weather History Date:

Friday, November 9, 2012

  Actual Average Record
Temperature  
Mean Temperature 28 °F 39 °F  
Max Temperature 35 °F 49 °F 71 °F (2004)
Min Temperature 21 °F 29 °F -6 °F (1986)
Degree Days  
Heating Degree Days 37 26  
Month to date heating degree days 166 220  
Since 1 July heating degree days 811 972  
Cooling Degree Days 0 0  
Month to date cooling degree days 0 0  
Year to date cooling degree days 958 636  
Moisture  
Dew Point 26 °F    
Average Humidity 89    
Maximum Humidity 100    
Minimum Humidity 78    
Precipitation  
Precipitation 0.04 in 0.03 in 0.61 in (1984)
Month to date precipitation 0.14 0.20  
Year to date precipitation 6.36 12.73  
Snow  
Snow 0.70 in 0.20 in 6.10 in (1984)
Month to date snowfall 0.7 1.6  
Since 1 July snowfall 4.8 6.8  
Since 1 September snowfall 4.8 6.8  
Snow Depth 0.00 in    
Sea Level Pressure  
Sea Level Pressure 29.78 in    
Wind  
Wind Speed 11 mph (North)    
Max Wind Speed 23 mph    
Max Gust Speed 29 mph    
Visibility 4 miles    
Events Fog , Snow    
T = Trace of Precipitation, MM = Missing Value Source: NWS Daily Summary

Daily Weather History Graph

Daily Weather History Graph

Search for Another Location

Airport:

Trip Planner

Search our weather history database for the weather conditions in past years. The results will help you decide how hot, cold, wet, or windy it might be!

Date:

Astronomy

Nov. 09, 2012 Rise Set
Actual Time 7:06 AM MST 4:49 PM MST
Civil Twilight 6:34 AM MST 5:20 PM MST
Nautical Twilight 5:58 AM MST 5:56 PM MST
Astronomical Twilight 5:23 AM MST 6:31 PM MST
Moon 1:54 AM MST (11/9) 2:16 PM MST (11/9)
Length of Visible Light 10h 46m
Length of Day
9h 42m
Waning Crescent, 22% of the Moon is Illuminated
Nov 9
Waning Crescent
Nov 13
New
Nov 20
First Quarter
Nov 28
Full
Dec 6
Last Quarter

Hourly Weather History & Observations

Time (MST) Temp. Windchill Dew Point Humidity Pressure Visibility Wind Dir Wind Speed Gust Speed Precip Events Conditions
12:53 AM 30.9 °F 22.2 °F 28.0 °F 89% 29.81 in 10.0 mi NE 10.4 mph - N/A   Overcast
1:53 AM 32.0 °F 24.2 °F 27.0 °F 82% 29.81 in 10.0 mi NNE 9.2 mph - N/A   Overcast
2:53 AM 30.9 °F 22.2 °F 28.0 °F 89% 29.79 in 7.0 mi NE 10.4 mph - 0.00 in Fog Overcast
3:32 AM 30.2 °F 22.6 °F 28.4 °F 93% 29.71 in 3.0 mi NNE 8.1 mph - 0.00 in   Light Freezing Drizzle
3:53 AM 30.0 °F 23.2 °F 28.9 °F 96% 29.79 in 4.0 mi NNE 6.9 mph - 0.00 in   Light Freezing Drizzle
4:25 AM 30.2 °F 23.4 °F 28.4 °F 93% 29.70 in 2.5 mi NNE 6.9 mph - 0.00 in   Light Freezing Drizzle
4:37 AM 30.2 °F 23.4 °F 28.4 °F 93% 29.69 in 1.0 mi NNE 6.9 mph - 0.00 in   Light Freezing Drizzle
4:39 AM 30.2 °F 22.6 °F 28.4 °F 93% 29.69 in 0.8 mi NE 8.1 mph - 0.00 in   Light Freezing Drizzle
4:53 AM 30.0 °F 21.7 °F 28.9 °F 96% 29.76 in 0.8 mi NNE 9.2 mph - 0.00 in   Light Freezing Drizzle
5:53 AM 30.0 °F 24.1 °F 28.9 °F 96% 29.75 in 0.5 mi NNE 5.8 mph - 0.00 in Fog Light Freezing Drizzle
6:01 AM 30.2 °F 24.3 °F 30.2 °F 100% 29.68 in 0.5 mi NE 5.8 mph - 0.00 in   Light Freezing Drizzle
6:05 AM 30.2 °F 23.4 °F 28.4 °F 93% 29.67 in 0.5 mi NNE 6.9 mph - 0.00 in   Light Freezing Drizzle
6:53 AM 30.0 °F 25.2 °F 30.0 °F 100% 29.76 in 1.0 mi North 4.6 mph - 0.00 in   Light Freezing Drizzle
7:53 AM 30.9 °F 26.2 °F 30.0 °F 96% 29.79 in 1.0 mi NNW 4.6 mph - 0.00 in   Light Freezing Drizzle
8:47 AM 30.2 °F 24.3 °F 30.2 °F 100% 29.71 in 1.0 mi North 5.8 mph - 0.00 in Snow Light Snow
8:53 AM 30.9 °F 24.3 °F 30.0 °F 96% 29.78 in 1.0 mi North 6.9 mph - 0.00 in Snow Light Snow
9:38 AM 30.2 °F 23.4 °F 30.2 °F 100% 29.70 in 3.0 mi North 6.9 mph - 0.00 in Snow Light Snow
9:45 AM 32.0 °F 27.5 °F 30.2 °F 93% 29.71 in 3.0 mi NNE 4.6 mph - 0.00 in Snow Light Snow
9:53 AM 32.0 °F 27.5 °F 30.0 °F 92% 29.79 in 4.0 mi North 4.6 mph - 0.00 in Snow Light Snow
10:02 AM 32.0 °F 27.5 °F 30.2 °F 93% 29.72 in 8.0 mi North 4.6 mph - 0.00 in   Overcast
10:53 AM 33.1 °F 26.1 °F 30.0 °F 89% 29.78 in 10.0 mi North 8.1 mph - 0.00 in   Overcast
11:53 AM 33.1 °F 23.9 °F 30.0 °F 89% 29.78 in 10.0 mi NNW 12.7 mph - 0.00 in Snow Light Snow
12:53 PM 34.0 °F 27.2 °F 28.9 °F 82% 29.77 in 10.0 mi North 8.1 mph - 0.00 in Snow Light Snow
1:53 PM 33.1 °F 26.1 °F 28.9 °F 85% 29.78 in 10.0 mi North 8.1 mph - 0.00 in   Overcast
2:53 PM 33.1 °F 23.4 °F 28.0 °F 82% 29.78 in 6.0 mi North 13.8 mph - 0.00 in Snow Light Snow
3:26 PM 32.0 °F 22.1 °F 28.4 °F 87% 29.71 in 2.0 mi North 13.8 mph - 0.00 in Snow Light Snow
3:33 PM 30.2 °F 18.9 °F 28.4 °F 93% 29.71 in 1.2 mi North 16.1 mph - 0.00 in Snow Light Snow
3:42 PM 30.2 °F 19.8 °F 28.4 °F 93% 29.71 in 1.2 mi North 13.8 mph - 0.00 in Snow Light Snow
3:53 PM 30.0 °F 19.1 °F 28.0 °F 92% 29.81 in 1.5 mi North 15.0 mph - 0.01 in Snow Light Snow
4:05 PM 30.2 °F 19.8 °F 28.4 °F 93% 29.71 in 5.0 mi North 13.8 mph - 0.00 in Snow Light Snow
4:14 PM 30.2 °F 18.9 °F 26.6 °F 86% 29.71 in 2.5 mi North 16.1 mph - 0.00 in Snow Light Snow
4:35 PM 30.2 °F 19.3 °F 26.6 °F 86% 29.74 in 4.0 mi North 15.0 mph - 0.00 in Snow Light Snow
4:40 PM 30.2 °F 19.3 °F 26.6 °F 86% 29.73 in 5.0 mi North 15.0 mph - 0.00 in Snow Light Snow
4:53 PM 28.9 °F 17.7 °F 26.1 °F 89% 29.82 in 5.0 mi North 15.0 mph - 0.00 in Snow Light Snow
5:15 PM 28.4 °F 18.0 °F 26.6 °F 93% 29.75 in 2.5 mi North 12.7 mph - 0.00 in Snow Light Snow
5:26 PM 28.4 °F 15.8 °F 24.8 °F 86% 29.75 in 5.0 mi North 18.4 mph 24.2 mph 0.00 in Snow Light Snow
5:50 PM 26.6 °F 14.7 °F 23.0 °F 86% 29.75 in 9.0 mi North 15.0 mph 26.5 mph 0.00 in   Overcast
5:53 PM 27.0 °F 13.9 °F 23.0 °F 85% 29.85 in 9.0 mi North 18.4 mph 26.5 mph 0.00 in   Overcast
6:53 PM 26.1 °F 13.1 °F 21.9 °F 84% 29.86 in 9.0 mi North 17.3 mph 25.3 mph 0.00 in Snow Light Snow
7:53 PM 24.1 °F 9.4 °F 19.9 °F 84% 29.87 in 5.0 mi NNE 20.7 mph 26.5 mph 0.00 in Snow Light Snow
8:39 PM 23.0 °F 10.6 °F 19.4 °F 86% 29.76 in 2.0 mi NNE 13.8 mph - 0.00 in Snow Light Snow
8:46 PM 23.0 °F 10.6 °F 19.4 °F 86% 29.78 in 1.2 mi NNE 13.8 mph 21.9 mph 0.00 in Snow Light Snow
8:53 PM 23.0 °F 9.2 °F 19.9 °F 88% 29.87 in 1.2 mi NNE 17.3 mph 24.2 mph 0.01 in Snow Light Snow
9:06 PM 23.0 °F 11.7 °F 19.4 °F 86% 29.79 in 2.0 mi NNE 11.5 mph 21.9 mph 0.00 in Snow Light Snow
9:20 PM 23.0 °F 10.6 °F 19.4 °F 86% 29.79 in 4.0 mi NNE 13.8 mph - 0.00 in Snow Light Snow
9:39 PM 23.0 °F 10.6 °F 19.4 °F 86% 29.79 in 2.5 mi NNE 13.8 mph - N/A Snow Light Snow
9:53 PM 21.9 °F 9.8 °F 19.0 °F 89% 29.89 in 2.0 mi NNE 12.7 mph - 0.01 in Snow Light Snow
10:31 PM 21.2 °F 10.1 °F 17.6 °F 86% 29.79 in 3.0 mi NNE 10.4 mph 19.6 mph 0.00 in Snow Light Snow
10:53 PM 21.0 °F 9.3 °F 18.0 °F 88% 29.90 in 5.0 mi North 11.5 mph - 0.00 in Snow Light Snow
11:53 PM 21.0 °F 9.9 °F 18.0 °F 88% 29.90 in 3.0 mi North 10.4 mph - 0.01 in Snow Light Snow